Content
SEND FEEDBACK

Daily
Averages
Monthly
Summary
United Kingdom

LONDON, ENGLAND


Home > Europe > United Kingdom > England
Elevation: 203 feet     Latitude: 51 09N     Longitude: 000 11W

WEATHER
 
SELECT A DAY
Number of Records: 299,479;   Date Range: 7/1/96 - 12/19/14
 
SHARE

PRINT THIS DATA

[ ← Previous Day ]
WEATHER ALMANAC - FEBRUARY 22, 2013
[ Next Day → ]
[ °C ]   °F
Weather ElementAverageHighLow
Temperature32.1 °F33.8 °F (2:50 pm)30.2 °F (9:50 am)
Dewpoint23.4 °F28.4 °F (12:20 pm)19.4 °F (12:50 am)
Humidity70.4 %87 % (12:20 pm)60 % (12:50 am)
Barometer30.10 in30.12 in (12:50 am)30.06 in (4:20 pm)
Wind Speed11.5 mph17.3 mph (4:20 pm)
Weather ElementAverage
Visibility5.9 mi
Wind DirectionNE (44.5 °)

Weather ElementTotal
Precipitation---
Heating Degree Days33 (Base 65)
Averaged from 47 records on February 22, 2013
WEATHER CONDITIONS BREAKOUT
WIND DIRECTION BREAKOUT
WEATHER BY HOUR - FEBRUARY 22, 2013
[ °C ]   °F
Local TimeTemperatureDewpointHumidityBarometerVisibilityWind DirectionWind SpeedGust SpeedPrecipitationEventsConditions
12:50 AM32.0 °F19.4 °F60 %30.12 in6.2 miENE (60°)12.7 mphMostly Cloudy
1:20 AM32.0 °F19.4 °F60 %30.12 in6.2 miENE (60°)11.5 mphMostly Cloudy
1:50 AM32.0 °F19.4 °F60 %30.12 in6.2 miNE (50°)10.4 mphMostly Cloudy
2:20 AM32.0 °F21.2 °F64 %30.12 in6.2 miNE (50°)10.4 mphMostly Cloudy
2:50 AM32.0 °F21.2 °F64 %30.12 in6.2 miENE (60°)9.2 mphMostly Cloudy
3:20 AM32.0 °F19.4 °F60 %30.09 in6.2 miENE (60°)6.9 mphMostly Cloudy
3:50 AM32.0 °F19.4 °F60 %30.09 in6.2 miNE (40°)5.8 mphMostly Cloudy
4:20 AM32.0 °F21.2 °F64 %30.09 in6.2 miENE (70°)4.6 mphMostly Cloudy
4:50 AM32.0 °F21.2 °F64 %30.09 in6.2 miNE (50°)9.2 mphSnowLight Snow
5:20 AM32.0 °F21.2 °F64 %30.09 in6.2 miENE (60°)9.2 mphSnowLight Snow Grains
5:50 AM32.0 °F21.2 °F64 %30.09 in6.2 miENE (60°)11.5 mphSnowLight Snow Grains
6:20 AM32.0 °F21.2 °F64 %30.09 in6.2 miNE (40°)9.2 mphSnowLight Snow Grains
6:50 AM32.0 °F21.2 °F64 %30.09 in6.2 miNE (40°)10.4 mphMostly Cloudy
7:20 AM32.0 °F21.2 °F64 %30.12 in6.2 miNE (40°)10.4 mphMostly Cloudy
7:50 AM32.0 °F21.2 °F64 %30.12 in6.2 miNE (40°)9.2 mphMostly Cloudy
8:20 AM32.0 °F21.2 °F64 %30.12 in6.2 miNE (50°)9.2 mphOvercast
8:50 AM32.0 °F23.0 °F69 %30.12 in6.2 miENE (60°)9.2 mphSnowLight Snow
9:20 AM32.0 °F23.0 °F69 %30.12 in3.7 miENE (70°)13.8 mphSnowLight Snow
9:50 AM30.2 °F24.8 °F80 %30.12 inENE (60°)10.4 mphSnowLight Snow
10:20 AM32.0 °F26.6 °F80 %30.12 inNE (40°)8.1 mphSnowLight Snow
10:50 AM32.0 °F26.6 °F80 %30.12 in2.5 miENE (60°)11.5 mphSnowLight Snow
11:20 AM32.0 °F26.6 °F80 %30.12 inENE (60°)12.7 mphSnowLight Snow
11:50 AM32.0 °F26.6 °F80 %30.12 in1.7 miENE (70°)9.2 mphSnowLight Snow
12:20 PM32.0 °F28.4 °F87 %30.12 inENE (60°)9.2 mphSnowLight Snow
12:50 PM32.0 °F26.6 °F80 %30.09 in5.0 miENE (60°)13.8 mphSnowLight Snow
1:20 PM32.0 °F26.6 °F80 %30.09 in6.2 miENE (60°)10.4 mphSnowLight Snow
1:50 PM32.0 °F26.6 °F80 %30.09 in6.2 miENE (60°)11.5 mphSnowLight Snow
2:20 PM32.0 °F24.8 °F75 %30.09 in5.6 miNE (50°)15.0 mphRain-SnowLight Rain
2:50 PM33.8 °F24.8 °F70 %30.09 in6.2 miNE (50°)15.0 mphSnowLight Snow
3:20 PM33.8 °F24.8 °F70 %30.09 in6.2 miNE (40°)15.0 mphSnowLight Snow
3:50 PM33.8 °F24.8 °F70 %30.09 in6.2 miNE (40°)13.8 mphMostly Cloudy
4:20 PM33.8 °F23.0 °F65 %30.06 in6.2 miNE (40°)17.3 mphMostly Cloudy
4:50 PM32.0 °F23.0 °F69 %30.06 in6.2 miNE (40°)16.1 mphMostly Cloudy
5:20 PM32.0 °F23.0 °F69 %30.09 in6.2 miNNE (30°)12.7 mphMostly Cloudy
5:50 PM32.0 °F23.0 °F69 %30.09 in6.2 miNE (40°)11.5 mphMostly Cloudy
6:20 PM32.0 °F23.0 °F69 %30.09 in6.2 miNNE (30°)12.7 mphMostly Cloudy
6:50 PM32.0 °F23.0 °F69 %30.09 in6.2 miNNE (30°)10.4 mphMostly Cloudy
7:20 PM32.0 °F23.0 °F69 %30.09 in6.2 miNNE (20°)11.5 mphSnowLight Snow Showers
7:50 PM32.0 °F24.8 °F75 %30.09 in6.2 miNNE (20°)10.4 mphSnowLight Snow Showers
8:20 PM32.0 °F24.8 °F75 %30.09 in6.2 miNNE (20°)11.5 mphSnowLight Snow Showers
8:50 PM32.0 °F24.8 °F75 %30.09 in6.2 miNorth (10°)12.7 mphSnowLight Snow Showers
9:20 PM32.0 °F24.8 °F75 %30.09 in6.2 miNNE (20°)12.7 mphSnowLight Snow Showers
9:50 PM32.0 °F24.8 °F75 %30.06 in6.2 miNNE (30°)12.7 mphSnowLight Snow Showers
10:20 PM32.0 °F24.8 °F75 %30.06 in6.2 miNNE (20°)15.0 mphSnowLight Snow Showers
10:50 PM32.0 °F24.8 °F75 %30.06 in6.2 miNNE (30°)13.8 mphSnowLight Snow Showers
11:20 PM32.0 °F24.8 °F75 %30.06 in6.2 miNNE (20°)15.0 mphSnowLight Snow
11:50 PM32.0 °F24.8 °F75 %30.06 in6.2 miNNE (20°)13.8 mphSnowLight Snow
Hourly data recorded from EGKK, located miles away from London, England







STORIES FROM OUR PARTNERS